Precipitable_Water
1.48 1.45 1.46 1.45 1.47 1.47 1.51 1.55 1.58 1.63 1.65 1.68 1.67 1.69 1.71 1.74 1.73 1.72 1.73 1.70 1.73 1.73 1.74 1.76 1.79 1.80 1.80 1.80 1.77 1.76 1.75 1.75 1.78 1.78 1.74 1.68 1.70 1.70 1.70 1.68 1.62 1.63 1.63 1.61 1.65 1.65 1.63 1.59 1.58 1.59 1.61 1.54 1.56 1.56 1.55 1.58 1.60 1.57 1.55 1.50 1.43 1.46 1.39 1.29 1.21 1.29 1.56 1.74 1.66 1.63 1.66 1.60 1.48 1.41 1.31 1.28 1.29 1.33 1.40 1.41 1.35 1.35 1.43 1.48 1.53
1.49 1.49 1.48 1.45 1.42 1.45 1.50 1.55 1.58 1.60 1.60 1.63 1.63 1.67 1.71 1.76 1.78 1.76 1.70 1.73 1.75 1.74 1.75 1.77 1.79 1.81 1.81 1.82 1.82 1.82 1.81 1.80 1.80 1.78 1.72 1.70 1.71 1.75 1.70 1.68 1.65 1.63 1.64 1.59 1.62 1.67 1.68 1.63 1.62 1.62 1.64 1.55 1.53 1.52 1.56 1.59 1.59 1.57 1.56 1.49 1.44 1.47 1.57 1.42 1.41 1.39 1.37 1.59 1.63 1.72 1.63 1.63 1.39 1.43 1.26 1.21 1.23 1.32 1.35 1.36 1.32 1.37 1.43 1.50 1.56
1.55 1.53 1.50 1.46 1.42 1.44 1.47 1.50 1.54 1.56 1.55 1.57 1.57 1.62 1.68 1.74 1.78 1.74 1.71 1.72 1.75 1.74 1.75 1.77 1.79 1.81 1.81 1.81 1.81 1.80 1.81 1.80 1.81 1.77 1.73 1.71 1.68 1.70 1.73 1.72 1.68 1.65 1.62 1.61 1.59 1.61 1.59 1.58 1.59 1.63 1.64 1.57 1.56 1.55 1.57 1.55 1.57 1.53 1.50 1.53 1.50 1.54 1.65 1.66 1.56 1.45 1.41 1.46 1.62 1.58 1.59 1.56 1.38 1.27 1.29 1.28 1.29 1.33 1.32 1.29 1.24 1.32 1.44 1.52 1.57
1.57 1.54 1.51 1.49 1.50 1.48 1.44 1.46 1.47 1.50 1.50 1.54 1.53 1.56 1.62 1.68 1.74 1.72 1.72 1.72 1.69 1.72 1.75 1.76 1.77 1.78 1.76 1.77 1.79 1.78 1.78 1.77 1.77 1.77 1.76 1.75 1.75 1.76 1.78 1.77 1.76 1.74 1.70 1.67 1.67 1.66 1.64 1.64 1.65 1.68 1.68 1.60 1.58 1.57 1.58 1.59 1.57 1.56 1.54 1.57 1.56 1.57 1.65 1.65 1.63 1.51 1.48 1.40 1.55 1.50 1.53 1.43 1.40 1.34 1.31 1.31 1.30 1.31 1.30 1.27 1.25 1.30 1.42 1.52 1.56
1.61 1.59 1.56 1.52 1.53 1.49 1.45 1.44 1.41 1.41 1.44 1.49 1.51 1.54 1.57 1.61 1.67 1.67 1.68 1.66 1.68 1.70 1.72 1.75 1.74 1.74 1.71 1.72 1.73 1.73 1.74 1.75 1.74 1.75 1.76 1.79 1.79 1.79 1.80 1.81 1.79 1.78 1.77 1.75 1.74 1.71 1.68 1.66 1.69 1.70 1.68 1.58 1.57 1.55 1.57 1.56 1.60 1.60 1.58 1.63 1.62 1.65 1.69 1.68 1.64 1.61 1.53 1.46 1.48 1.55 1.54 1.49 1.42 1.30 1.30 1.21 1.26 1.33 1.36 1.19 1.17 1.27 1.44 1.50 1.54
1.63 1.63 1.63 1.60 1.58 1.54 1.50 1.46 1.41 1.39 1.40 1.43 1.48 1.54 1.56 1.57 1.60 1.64 1.65 1.62 1.66 1.69 1.70 1.74 1.74 1.73 1.74 1.74 1.73 1.72 1.72 1.71 1.70 1.70 1.71 1.74 1.75 1.75 1.75 1.76 1.77 1.77 1.77 1.77 1.76 1.75 1.71 1.69 1.71 1.72 1.68 1.61 1.58 1.59 1.60 1.55 1.56 1.55 1.57 1.61 1.66 1.71 1.72 1.73 1.70 1.65 1.61 1.56 1.50 1.44 1.51 1.37 1.27 1.22 1.26 1.27 1.20 1.19 1.20 1.19 1.15 1.28 1.40 1.46 1.52
1.62 1.63 1.65 1.64 1.64 1.62 1.59 1.53 1.47 1.43 1.42 1.43 1.48 1.53 1.58 1.59 1.59 1.59 1.63 1.61 1.62 1.66 1.70 1.72 1.76 1.75 1.76 1.76 1.73 1.72 1.71 1.70 1.69 1.68 1.67 1.68 1.67 1.66 1.65 1.67 1.69 1.70 1.71 1.72 1.72 1.73 1.73 1.74 1.75 1.76 1.73 1.71 1.68 1.68 1.70 1.70 1.67 1.65 1.68 1.69 1.70 1.65 1.61 1.65 1.69 1.68 1.65 1.57 1.55 1.53 1.45 1.44 1.29 1.15 1.29 1.32 1.29 1.24 1.14 1.10 1.07 1.22 1.36 1.44 1.47
1.59 1.62 1.63 1.62 1.62 1.62 1.63 1.63 1.57 1.51 1.48 1.49 1.49 1.51 1.56 1.59 1.60 1.62 1.62 1.58 1.58 1.61 1.65 1.67 1.71 1.72 1.72 1.73 1.74 1.73 1.71 1.69 1.69 1.68 1.66 1.65 1.64 1.62 1.62 1.60 1.59 1.61 1.63 1.64 1.65 1.64 1.65 1.65 1.66 1.70 1.72 1.74 1.75 1.77 1.78 1.75 1.77 1.73 1.77 1.76 1.74 1.70 1.67 1.69 1.71 1.69 1.64 1.61 1.56 1.53 1.52 1.44 1.43 1.43 1.41 1.35 1.33 1.40 1.36 1.21 1.08 1.09 1.21 1.38 1.46
1.56 1.59 1.63 1.61 1.61 1.65 1.68 1.69 1.66 1.58 1.52 1.50 1.50 1.52 1.54 1.58 1.62 1.62 1.60 1.58 1.58 1.60 1.62 1.62 1.62 1.64 1.68 1.69 1.70 1.71 1.68 1.67 1.69 1.67 1.65 1.65 1.65 1.62 1.62 1.61 1.59 1.57 1.57 1.58 1.60 1.61 1.63 1.64 1.64 1.63 1.65 1.67 1.72 1.75 1.78 1.81 1.76 1.69 1.73 1.74 1.73 1.72 1.70 1.71 1.73 1.71 1.69 1.65 1.62 1.64 1.56 1.53 1.55 1.50 1.43 1.38 1.34 1.32 1.39 1.37 1.24 1.20 1.21 1.32 1.42
1.60 1.62 1.63 1.66 1.70 1.71 1.72 1.71 1.66 1.61 1.54 1.50 1.50 1.52 1.53 1.55 1.57 1.57 1.60 1.61 1.61 1.63 1.63 1.63 1.60 1.59 1.60 1.63 1.64 1.63 1.61 1.64 1.65 1.65 1.64 1.63 1.63 1.62 1.62 1.62 1.61 1.60 1.59 1.58 1.59 1.63 1.64 1.67 1.70 1.71 1.69 1.68 1.68 1.69 1.71 1.76 1.81 1.80 1.78 1.82 1.80 1.74 1.71 1.68 1.67 1.69 1.63 1.61 1.59 1.59 1.55 1.57 1.64 1.64 1.51 1.49 1.51 1.52 1.46 1.42 1.29 1.24 1.20 1.26 1.38
1.69 1.70 1.71 1.77 1.81 1.81 1.79 1.75 1.72 1.62 1.57 1.55 1.56 1.53 1.52 1.54 1.53 1.56 1.61 1.65 1.66 1.67 1.66 1.62 1.60 1.59 1.56 1.55 1.54 1.56 1.60 1.61 1.59 1.59 1.60 1.62 1.62 1.62 1.61 1.61 1.63 1.63 1.63 1.62 1.60 1.62 1.67 1.72 1.75 1.79 1.82 1.83 1.85 1.84 1.83 1.81 1.83 1.86 1.91 1.95 1.96 1.86 1.71 1.64 1.62 1.64 1.61 1.60 1.63 1.62 1.57 1.58 1.67 1.71 1.62 1.58 1.58 1.51 1.46 1.46 1.40 1.32 1.20 1.11 1.20
1.76 1.76 1.83 1.91 1.96 1.95 1.91 1.87 1.81 1.72 1.64 1.59 1.59 1.58 1.57 1.56 1.60 1.67 1.69 1.67 1.68 1.67 1.64 1.64 1.64 1.64 1.61 1.60 1.58 1.60 1.59 1.60 1.61 1.61 1.61 1.61 1.62 1.64 1.67 1.67 1.68 1.67 1.68 1.67 1.68 1.70 1.73 1.78 1.84 1.89 1.91 1.92 1.95 1.97 1.97 1.95 1.89 1.90 1.93 1.94 1.93 1.92 1.92 1.83 1.72 1.64 1.64 1.59 1.58 1.59 1.60 1.63 1.68 1.72 1.70 1.69 1.66 1.60 1.56 1.50 1.45 1.36 1.27 1.23 1.30
1.92 1.90 1.89 1.88 1.91 1.97 2.07 2.02 1.97 1.88 1.81 1.75 1.71 1.68 1.64 1.60 1.61 1.63 1.63 1.68 1.69 1.67 1.72 1.74 1.68 1.67 1.64 1.62 1.62 1.64 1.64 1.66 1.66 1.65 1.63 1.61 1.60 1.60 1.61 1.65 1.67 1.69 1.71 1.71 1.71 1.73 1.78 1.80 1.83 1.90 1.96 1.99 2.02 2.09 2.11 2.10 2.15 2.08 1.95 1.93 1.89 1.87 1.85 1.87 1.91 1.87 1.85 1.74 1.63 1.59 1.64 1.69 1.67 1.73 1.79 1.78 1.77 1.59 1.54 1.48 1.47 1.42 1.40 1.32 1.40
1.92 1.91 1.94 1.93 1.95 1.99 2.04 2.10 2.03 1.99 1.91 1.87 1.90 1.84 1.65 1.59 1.62 1.69 1.72 1.71 1.68 1.66 1.76 1.85 1.75 1.71 1.75 1.75 1.74 1.71 1.66 1.65 1.63 1.61 1.60 1.60 1.59 1.58 1.58 1.58 1.60 1.63 1.66 1.68 1.71 1.74 1.79 1.80 1.79 1.78 1.84 1.91 1.94 1.88 1.87 1.91 1.95 2.03 2.07 2.00 1.92 1.92 1.92 1.87 1.84 1.87 1.91 1.84 1.77 1.68 1.81 1.84 1.77 1.84 1.90 1.87 1.70 1.56 1.49 1.46 1.51 1.45 1.43 1.46 1.57
1.97 1.96 1.95 1.99 2.04 2.03 2.03 2.03 2.08 2.07 1.94 1.85 1.88 2.02 1.86 1.75 1.76 1.74 1.77 1.76 1.75 1.76 1.80 1.80 1.80 1.81 1.83 1.84 1.81 1.77 1.76 1.75 1.71 1.68 1.67 1.66 1.67 1.66 1.66 1.63 1.62 1.63 1.67 1.71 1.75 1.79 1.83 1.87 1.89 1.89 1.93 1.98 2.02 2.01 1.99 1.95 1.97 1.99 1.99 1.98 2.02 2.01 1.97 1.93 1.92 1.88 1.86 1.84 1.81 1.84 1.90 1.96 1.96 1.98 1.96 1.85 1.70 1.63 1.60 1.56 1.57 1.56 1.55 1.67 1.70
2.00 1.99 1.99 2.02 2.01 2.05 2.04 2.00 2.07 2.12 1.99 1.87 1.83 1.97 1.99 1.92 1.82 1.75 1.77 1.88 1.88 1.82 1.84 1.86 1.85 1.86 1.91 1.93 1.89 1.82 1.81 1.81 1.80 1.80 1.80 1.81 1.82 1.80 1.74 1.67 1.64 1.65 1.67 1.71 1.75 1.80 1.85 1.88 1.91 1.94 1.99 2.02 2.04 2.06 2.05 2.04 2.00 1.94 1.91 1.97 2.03 2.08 2.03 2.02 1.97 1.93 1.90 1.92 1.94 1.96 2.01 2.01 1.97 1.96 1.89 1.78 1.68 1.65 1.63 1.64 1.64 1.60 1.56 1.52 1.54
2.00 2.03 2.03 2.05 2.07 2.07 2.04 1.99 2.02 2.07 2.05 1.95 1.94 1.98 1.98 1.95 1.94 1.92 1.85 1.89 1.86 1.83 1.86 1.90 1.92 1.92 1.92 1.95 1.94 1.90 1.89 1.90 1.92 1.93 1.94 1.95 1.97 1.95 1.89 1.81 1.76 1.73 1.74 1.78 1.82 1.86 1.91 1.96 1.97 1.98 1.99 2.01 2.06 2.06 2.06 2.06 2.02 1.96 1.94 1.93 1.99 2.07 2.05 2.04 2.01 1.96 1.92 1.93 1.94 1.97 1.98 1.93 1.87 1.76 1.69 1.69 1.69 1.69 1.61 1.51 1.50 1.58 1.49 1.41 1.46
2.03 2.04 2.06 2.09 2.08 2.12 2.11 2.11 2.05 2.02 2.01 2.00 2.02 2.05 2.03 2.01 2.00 2.02 1.93 1.89 1.90 1.91 1.95 1.99 2.01 2.01 2.00 1.98 1.99 1.94 1.93 1.95 1.96 1.98 1.99 2.00 2.00 1.98 1.96 1.92 1.86 1.83 1.80 1.82 1.85 1.88 1.93 1.95 1.97 1.97 1.97 2.01 2.05 2.03 2.03 2.02 1.98 1.98 1.96 1.97 1.97 2.02 2.11 2.11 2.07 1.98 1.94 1.90 1.86 1.84 1.86 1.89 1.87 1.78 1.71 1.69 1.68 1.69 1.62 1.48 1.56 1.55 1.45 1.43 1.37
1.98 2.01 2.08 2.13 2.14 2.14 2.16 2.16 2.08 2.03 2.01 2.03 2.05 2.05 2.00 2.00 2.04 2.03 1.98 1.94 1.90 1.93 1.94 1.94 1.96 1.99 2.00 1.99 1.97 1.93 1.91 1.91 1.93 1.96 1.98 1.99 2.02 2.05 2.02 1.96 1.89 1.86 1.84 1.83 1.87 1.89 1.91 1.93 1.91 1.91 1.94 1.97 2.00 2.00 2.02 2.02 2.00 2.01 2.02 2.01 2.00 2.01 2.12 2.14 2.10 2.02 1.93 1.86 1.83 1.82 1.85 1.89 1.95 1.91 1.86 1.78 1.72 1.69 1.69 1.67 1.66 1.57 1.50 1.47 1.43
2.10 2.14 2.14 2.13 2.13 2.11 2.12 2.09 2.04 1.99 2.03 2.08 2.06 2.03 2.04 2.01 1.99 1.99 2.00 1.98 1.93 1.89 1.88 1.88 1.87 1.91 1.96 1.97 1.95 1.93 1.90 1.90 1.90 1.91 1.91 1.91 1.92 1.97 1.98 1.94 1.88 1.85 1.84 1.84 1.83 1.87 1.90 1.90 1.90 1.87 1.88 1.91 1.95 1.99 2.02 2.05 2.02 2.01 2.07 2.06 1.98 1.99 2.12 2.13 2.13 2.02 1.97 1.86 1.84 1.80 1.80 1.87 1.94 2.04 2.05 1.92 1.80 1.74 1.72 1.73 1.70 1.63 1.55 1.49 1.43
1.98 1.96 2.00 2.04 2.01 2.01 2.01 1.97 1.93 1.98 1.99 2.00 2.06 2.07 2.04 1.98 1.95 1.93 1.90 1.89 1.86 1.83 1.84 1.86 1.86 1.87 1.90 1.91 1.88 1.86 1.84 1.82 1.81 1.77 1.74 1.71 1.71 1.74 1.78 1.77 1.77 1.78 1.80 1.80 1.81 1.80 1.82 1.86 1.89 1.87 1.86 1.86 1.85 1.86 1.89 1.95 1.99 2.01 2.03 2.07 2.06 2.09 2.12 2.01 1.97 1.99 1.93 1.88 1.81 1.77 1.80 1.87 1.91 1.95 1.99 1.98 1.94 1.88 1.79 1.69 1.64 1.62 1.56 1.48 1.40
1.86 1.97 1.88 1.90 1.91 1.86 1.83 1.86 1.85 1.84 1.87 1.90 1.91 1.95 1.98 1.96 1.93 1.92 1.91 1.87 1.83 1.83 1.84 1.83 1.80 1.80 1.82 1.83 1.82 1.81 1.81 1.77 1.76 1.71 1.65 1.62 1.59 1.59 1.59 1.61 1.59 1.59 1.60 1.64 1.68 1.74 1.79 1.85 1.88 1.90 1.87 1.82 1.79 1.82 1.87 1.91 1.92 1.94 1.97 2.00 2.04 2.06 2.04 2.02 1.98 1.87 1.82 1.80 1.75 1.76 1.77 1.80 1.83 1.90 1.95 1.99 2.02 1.99 1.85 1.72 1.66 1.61 1.61 1.55 1.38
1.84 1.78 1.76 1.78 1.77 1.78 1.80 1.79 1.82 1.86 1.86 1.88 1.88 1.88 1.89 1.87 1.89 1.90 1.87 1.84 1.82 1.79 1.78 1.75 1.71 1.70 1.70 1.70 1.70 1.71 1.73 1.71 1.63 1.61 1.57 1.53 1.48 1.45 1.43 1.43 1.45 1.48 1.45 1.46 1.54 1.61 1.66 1.73 1.82 1.84 1.80 1.78 1.78 1.78 1.76 1.75 1.80 1.88 1.91 1.91 1.99 1.99 2.00 1.94 1.89 1.83 1.79 1.76 1.76 1.73 1.73 1.76 1.77 1.80 1.84 1.95 2.05 2.05 1.96 1.89 1.74 1.61 1.51 1.45 1.41
1.71 1.70 1.69 1.70 1.70 1.72 1.74 1.73 1.73 1.72 1.72 1.74 1.75 1.72 1.78 1.81 1.82 1.82 1.82 1.79 1.76 1.73 1.73 1.73 1.68 1.62 1.58 1.57 1.58 1.61 1.62 1.61 1.59 1.53 1.46 1.40 1.35 1.31 1.28 1.26 1.29 1.28 1.27 1.28 1.38 1.50 1.52 1.56 1.64 1.72 1.70 1.69 1.71 1.74 1.74 1.76 1.80 1.84 1.86 1.87 1.88 1.87 1.89 1.88 1.86 1.82 1.79 1.77 1.70 1.67 1.64 1.69 1.78 1.76 1.80 1.87 1.91 1.95 1.94 1.88 1.76 1.64 1.53 1.47 1.47
1.48 1.45 1.44 1.44 1.41 1.44 1.47 1.49 1.52 1.56 1.59 1.60 1.58 1.59 1.61 1.65 1.64 1.70 1.70 1.69 1.67 1.63 1.63 1.64 1.62 1.59 1.56 1.52 1.52 1.53 1.53 1.54 1.52 1.45 1.38 1.34 1.30 1.25 1.21 1.18 1.18 1.17 1.14 1.16 1.21 1.34 1.41 1.41 1.49 1.54 1.57 1.58 1.61 1.64 1.67 1.70 1.78 1.86 1.93 1.94 1.93 1.86 1.83 1.79 1.78 1.72 1.64 1.62 1.67 1.72 1.74 1.80 1.82 1.84 1.87 1.85 1.90 1.92 1.87 1.77 1.66 1.60 1.57 1.53 1.47
1.27 1.31 1.34 1.35 1.34 1.34 1.32 1.33 1.35 1.36 1.38 1.40 1.41 1.42 1.46 1.49 1.50 1.52 1.53 1.51 1.50 1.48 1.47 1.48 1.48 1.47 1.45 1.43 1.41 1.42 1.42 1.42 1.38 1.35 1.33 1.30 1.25 1.19 1.14 1.09 1.07 1.08 1.07 1.04 1.03 1.10 1.25 1.33 1.47 1.57 1.60 1.62 1.61 1.59 1.59 1.62 1.65 1.68 1.76 1.76 1.71 1.71 1.58 1.52 1.57 1.62 1.57 1.59 1.62 1.63 1.68 1.75 1.76 1.82 1.85 1.85 1.81 1.78 1.69 1.64 1.66 1.66 1.63 1.55 1.48
1.13 1.15 1.16 1.18 1.19 1.17 1.12 1.10 1.10 1.11 1.10 1.11 1.11 1.11 1.12 1.12 1.13 1.16 1.20 1.21 1.23 1.26 1.27 1.24 1.21 1.19 1.16 1.14 1.14 1.13 1.14 1.14 1.11 1.09 1.05 0.99 0.93 0.89 0.87 0.86 0.89 0.93 0.98 0.99 0.97 0.99 1.07 1.26 1.39 1.48 1.52 1.56 1.59 1.60 1.61 1.61 1.57 1.55 1.55 1.51 1.45 1.43 1.44 1.55 1.61 1.57 1.54 1.56 1.63 1.71 1.77 1.79 1.83 1.81 1.74 1.65 1.62 1.66 1.74 1.73 1.70 1.67 1.67 1.62 1.53
1.04 1.06 1.06 1.05 1.05 1.06 1.04 1.02 0.99 0.96 0.95 0.94 0.93 0.92 0.94 0.95 0.94 0.95 0.98 1.00 1.03 1.04 1.09 1.11 1.11 1.11 1.10 1.10 1.06 1.04 1.03 0.98 0.93 0.82 0.76 0.72 0.71 0.71 0.71 0.71 0.70 0.71 0.79 0.89 0.93 0.98 1.04 1.16 1.26 1.36 1.42 1.44 1.44 1.45 1.50 1.54 1.54 1.52 1.51 1.53 1.52 1.49 1.45 1.48 1.53 1.54 1.53 1.60 1.64 1.65 1.63 1.59 1.56 1.58 1.58 1.55 1.58 1.66 1.74 1.74 1.69 1.63 1.62 1.58 1.45
1.03 1.02 1.03 1.03 1.03 1.03 1.01 1.00 0.98 0.96 0.94 0.94 0.94 0.94 0.93 0.92 0.92 0.91 0.94 0.95 0.94 0.92 0.93 0.95 0.98 0.99 0.99 0.96 0.94 0.88 0.83 0.77 0.76 0.75 0.76 0.74 0.74 0.72 0.71 0.72 0.72 0.72 0.73 0.77 0.84 0.99 1.10 1.12 1.12 1.19 1.24 1.25 1.25 1.29 1.38 1.44 1.49 1.54 1.53 1.51 1.47 1.45 1.41 1.42 1.42 1.40 1.43 1.47 1.50 1.50 1.49 1.49 1.48 1.51 1.52 1.54 1.57 1.62 1.66 1.63 1.63 1.58 1.55 1.52 1.40
0.99 0.98 0.99 0.98 0.98 0.97 0.96 0.95 0.95 0.95 0.94 0.95 0.96 0.96 0.98 0.97 0.96 0.93 0.91 0.93 0.92 0.92 0.92 0.89 0.89 0.89 0.84 0.82 0.80 0.74 0.70 0.73 0.74 0.74 0.75 0.76 0.78 0.78 0.75 0.74 0.75 0.77 0.81 0.83 0.82 0.87 0.96 1.01 1.05 1.12 1.15 1.16 1.13 1.16 1.19 1.24 1.34 1.38 1.44 1.47 1.49 1.48 1.46 1.42 1.38 1.39 1.43 1.44 1.43 1.43 1.44 1.44 1.44 1.48 1.49 1.52 1.54 1.54 1.55 1.54 1.52 1.51 1.42 1.34 1.26
0.97 0.98 0.98 0.97 0.95 0.95 0.95 0.94 0.95 0.93 0.93 0.92 0.93 0.91 0.91 0.95 0.96 0.96 0.95 0.93 0.92 0.90 0.88 0.86 0.86 0.85 0.86 0.82 0.83 0.82 0.81 0.81 0.80 0.79 0.79 0.78 0.76 0.75 0.74 0.76 0.77 0.80 0.82 0.83 0.88 0.87 0.86 0.86 0.92 1.00 1.06 1.08 1.06 1.03 1.04 1.05 1.08 1.15 1.23 1.29 1.32 1.32 1.32 1.30 1.31 1.33 1.36 1.37 1.40 1.41 1.42 1.42 1.40 1.42 1.41 1.42 1.42 1.43 1.45 1.45 1.41 1.33 1.25 1.18 1.09
0.93 0.95 0.97 0.97 0.98 0.97 0.96 0.96 0.95 0.94 0.93 0.93 0.92 0.90 0.90 0.91 0.93 0.95 0.94 0.92 0.91 0.90 0.90 0.90 0.89 0.87 0.86 0.85 0.85 0.86 0.86 0.84 0.83 0.83 0.82 0.82 0.81 0.80 0.80 0.81 0.81 0.81 0.81 0.83 0.82 0.80 0.85 0.87 0.90 0.94 0.96 0.94 0.93 0.95 0.96 0.99 1.03 1.04 1.08 1.13 1.18 1.23 1.25 1.27 1.33 1.32 1.31 1.31 1.31 1.31 1.31 1.32 1.32 1.32 1.32 1.32 1.29 1.26 1.24 1.21 1.17 1.12 1.06 1.01 0.94
0.91 0.92 0.93 0.93 0.92 0.92 0.90 0.89 0.88 0.87 0.86 0.85 0.84 0.83 0.82 0.80 0.80 0.83 0.85 0.85 0.85 0.85 0.85 0.84 0.83 0.83 0.83 0.82 0.81 0.80 0.79 0.80 0.82 0.82 0.82 0.82 0.83 0.83 0.85 0.86 0.86 0.86 0.86 0.83 0.78 0.77 0.80 0.82 0.85 0.88 0.92 0.94 0.98 1.00 1.02 1.04 1.05 1.06 1.07 1.06 1.07 1.12 1.17 1.22 1.28 1.27 1.27 1.27 1.28 1.29 1.28 1.29 1.30 1.27 1.23 1.19 1.14 1.10 1.10 1.07 1.07 1.05 1.03 0.99 0.96
0.88 0.87 0.85 0.85 0.84 0.82 0.81 0.79 0.78 0.77 0.77 0.76 0.75 0.75 0.75 0.75 0.74 0.75 0.75 0.78 0.77 0.78 0.80 0.79 0.78 0.79 0.78 0.77 0.75 0.74 0.74 0.73 0.74 0.75 0.76 0.76 0.77 0.79 0.80 0.82 0.85 0.86 0.87 0.84 0.84 0.82 0.84 0.85 0.87 0.88 0.88 0.91 0.94 0.99 0.99 1.00 1.02 1.04 1.03 1.04 1.05 1.08 1.09 1.12 1.12 1.11 1.12 1.14 1.14 1.16 1.17 1.17 1.17 1.15 1.14 1.13 1.11 1.08 1.04 1.01 1.00 0.94 0.89 0.85 0.81
0.78 0.79 0.78 0.76 0.75 0.74 0.74 0.73 0.72 0.70 0.71 0.70 0.69 0.68 0.67 0.68 0.69 0.68 0.66 0.64 0.65 0.67 0.69 0.72 0.75 0.76 0.75 0.74 0.72 0.71 0.71 0.71 0.70 0.71 0.71 0.72 0.71 0.72 0.75 0.77 0.74 0.75 0.79 0.81 0.83 0.83 0.85 0.87 0.88 0.90 0.90 0.89 0.90 0.91 0.93 0.96 0.98 1.00 1.00 1.01 1.03 1.03 1.03 1.02 1.01 1.02 1.01 0.99 0.96 0.94 0.93 0.91 0.90 0.87 0.83 0.81 0.80 0.76 0.73 0.68 0.65 0.64 0.62 0.64 0.67
0.74 0.73 0.72 0.71 0.71 0.71 0.72 0.72 0.72 0.71 0.69 0.69 0.69 0.69 0.68 0.66 0.62 0.61 0.62 0.64 0.64 0.64 0.66 0.69 0.71 0.71 0.73 0.74 0.73 0.72 0.71 0.71 0.71 0.71 0.71 0.71 0.71 0.71 0.70 0.66 0.67 0.68 0.70 0.74 0.75 0.78 0.80 0.82 0.84 0.86 0.89 0.90 0.92 0.91 0.90 0.89 0.89 0.89 0.90 0.90 0.90 0.91 0.92 0.91 0.90 0.88 0.85 0.82 0.80 0.77 0.74 0.72 0.71 0.69 0.67 0.65 0.63 0.63 0.64 0.63 0.62 0.63 0.65 0.67 0.70
0.73 0.72 0.72 0.72 0.71 0.70 0.71 0.71 0.72 0.72 0.71 0.72 0.71 0.69 0.69 0.68 0.65 0.62 0.60 0.59 0.60 0.65 0.68 0.69 0.70 0.70 0.71 0.74 0.74 0.72 0.73 0.73 0.73 0.73 0.73 0.73 0.73 0.74 0.73 0.72 0.71 0.71 0.71 0.71 0.72 0.74 0.74 0.76 0.78 0.79 0.81 0.82 0.83 0.84 0.85 0.85 0.86 0.86 0.85 0.85 0.85 0.82 0.80 0.79 0.78 0.76 0.73 0.71 0.70 0.69 0.66 0.64 0.64 0.63 0.62 0.60 0.61 0.61 0.62 0.64 0.65 0.65 0.63 0.61 0.59
0.66 0.66 0.67 0.68 0.68 0.69 0.68 0.69 0.70 0.70 0.70 0.70 0.70 0.68 0.66 0.66 0.64 0.62 0.59 0.57 0.57 0.60 0.64 0.67 0.66 0.67 0.66 0.71 0.78 0.75 0.73 0.74 0.75 0.75 0.75 0.74 0.74 0.75 0.76 0.77 0.75 0.73 0.72 0.74 0.74 0.74 0.72 0.73 0.74 0.72 0.72 0.73 0.73 0.74 0.74 0.74 0.75 0.75 0.74 0.73 0.71 0.69 0.67 0.66 0.65 0.63 0.62 0.61 0.60 0.61 0.61 0.62 0.61 0.60 0.60 0.59 0.59 0.59 0.59 0.59 0.59 0.60 0.61 0.62 0.62
0.53 0.51 0.51 0.53 0.54 0.55 0.56 0.56 0.58 0.59 0.61 0.63 0.64 0.64 0.63 0.63 0.63 0.64 0.63 0.60 0.57 0.58 0.61 0.65 0.65 0.65 0.68 0.72 0.74 0.78 0.71 0.70 0.70 0.71 0.72 0.74 0.73 0.75 0.75 0.75 0.74 0.74 0.74 0.73 0.73 0.72 0.71 0.70 0.71 0.71 0.70 0.68 0.66 0.65 0.64 0.63 0.63 0.62 0.62 0.61 0.60 0.60 0.60 0.60 0.60 0.61 0.60 0.59 0.59 0.59 0.59 0.59 0.59 0.58 0.56 0.54 0.54 0.55 0.54 0.53 0.54 0.54 0.53 0.55 0.57
0.41 0.43 0.44 0.42 0.47 0.47 0.48 0.49 0.51 0.52 0.53 0.53 0.55 0.58 0.60 0.61 0.63 0.63 0.63 0.62 0.60 0.59 0.59 0.60 0.61 0.64 0.71 0.71 0.72 0.72 0.68 0.69 0.70 0.72 0.73 0.74 0.72 0.74 0.76 0.75 0.75 0.74 0.73 0.72 0.72 0.71 0.70 0.69 0.69 0.68 0.67 0.66 0.65 0.64 0.63 0.61 0.59 0.58 0.57 0.56 0.56 0.56 0.57 0.58 0.58 0.58 0.59 0.60 0.60 0.60 0.59 0.59 0.59 0.59 0.58 0.57 0.58 0.59 0.57 0.57 0.59 0.59 0.60 0.61 0.62
0.41 0.42 0.42 0.43 0.39 0.42 0.44 0.43 0.45 0.44 0.46 0.47 0.48 0.50 0.52 0.55 0.58 0.62 0.64 0.65 0.65 0.65 0.64 0.63 0.63 0.67 0.70 0.71 0.73 0.73 0.71 0.71 0.72 0.73 0.74 0.74 0.73 0.73 0.75 0.76 0.76 0.75 0.75 0.74 0.74 0.74 0.73 0.72 0.71 0.71 0.70 0.68 0.68 0.67 0.66 0.66 0.65 0.65 0.64 0.63 0.62 0.61 0.61 0.61 0.61 0.61 0.61 0.60 0.59 0.59 0.58 0.58 0.58 0.58 0.57 0.58 0.58 0.58 0.58 0.58 0.58 0.58 0.58 0.59 0.60
0.42 0.43 0.42 0.43 0.43 0.43 0.41 0.41 0.43 0.43 0.43 0.43 0.43 0.43 0.44 0.46 0.50 0.53 0.55 0.59 0.63 0.66 0.66 0.66 0.67 0.70 0.70 0.69 0.71 0.74 0.75 0.77 0.78 0.78 0.78 0.78 0.76 0.74 0.76 0.76 0.78 0.76 0.75 0.74 0.74 0.73 0.72 0.71 0.70 0.70 0.70 0.69 0.69 0.69 0.69 0.68 0.67 0.66 0.65 0.64 0.64 0.63 0.63 0.63 0.63 0.63 0.62 0.61 0.60 0.59 0.59 0.59 0.58 0.58 0.58 0.57 0.58 0.59 0.59 0.59 0.59 0.60 0.60 0.60 0.61
0.46 0.46 0.48 0.48 0.48 0.49 0.46 0.47 0.47 0.45 0.44 0.42 0.43 0.44 0.45 0.45 0.45 0.46 0.46 0.49 0.52 0.57 0.62 0.65 0.68 0.72 0.71 0.71 0.74 0.75 0.76 0.78 0.79 0.80 0.81 0.80 0.79 0.77 0.76 0.76 0.76 0.77 0.77 0.77 0.76 0.75 0.73 0.71 0.70 0.70 0.70 0.70 0.70 0.68 0.67 0.66 0.66 0.65 0.64 0.64 0.63 0.63 0.62 0.62 0.61 0.60 0.60 0.59 0.58 0.57 0.57 0.56 0.56 0.55 0.55 0.55 0.55 0.55 0.54 0.54 0.54 0.53 0.54 0.54 0.54
0.44 0.45 0.46 0.47 0.48 0.48 0.51 0.50 0.50 0.49 0.49 0.48 0.47 0.47 0.47 0.46 0.46 0.47 0.47 0.46 0.47 0.48 0.51 0.56 0.63 0.70 0.75 0.74 0.74 0.74 0.75 0.78 0.79 0.80 0.81 0.81 0.80 0.78 0.78 0.78 0.78 0.78 0.78 0.78 0.78 0.78 0.76 0.74 0.72 0.72 0.73 0.72 0.71 0.70 0.69 0.67 0.66 0.64 0.62 0.61 0.59 0.58 0.58 0.58 0.57 0.57 0.57 0.55 0.55 0.54 0.54 0.54 0.54 0.54 0.53 0.54 0.54 0.53 0.52 0.52 0.52 0.51 0.51 0.51 0.52
0.45 0.44 0.44 0.45 0.46 0.47 0.48 0.50 0.50 0.50 0.50 0.49 0.49 0.50 0.51 0.49 0.48 0.48 0.48 0.47 0.47 0.47 0.47 0.50 0.53 0.58 0.65 0.69 0.70 0.73 0.75 0.76 0.78 0.80 0.80 0.81 0.79 0.80 0.80 0.81 0.81 0.80 0.79 0.79 0.80 0.79 0.77 0.76 0.75 0.74 0.72 0.73 0.73 0.72 0.71 0.69 0.66 0.63 0.60 0.58 0.55 0.54 0.54 0.54 0.54 0.54 0.54 0.53 0.52 0.52 0.52 0.53 0.52 0.53 0.53 0.53 0.53 0.53 0.51 0.51 0.51 0.51 0.50 0.50 0.50
0.47 0.47 0.47 0.47 0.48 0.48 0.48 0.49 0.50 0.51 0.51 0.51 0.51 0.52 0.52 0.53 0.52 0.52 0.51 0.51 0.51 0.51 0.51 0.52 0.54 0.56 0.60 0.65 0.66 0.69 0.75 0.77 0.78 0.79 0.80 0.80 0.81 0.82 0.80 0.80 0.80 0.80 0.79 0.79 0.80 0.80 0.79 0.78 0.77 0.75 0.74 0.75 0.74 0.73 0.72 0.69 0.66 0.63 0.61 0.59 0.57 0.55 0.55 0.55 0.54 0.53 0.52 0.52 0.52 0.51 0.51 0.51 0.50 0.51 0.51 0.51 0.51 0.51 0.50 0.50 0.50 0.50 0.49 0.49 0.49
0.49 0.49 0.49 0.49 0.49 0.50 0.51 0.52 0.52 0.52 0.52 0.52 0.52 0.52 0.53 0.54 0.55 0.55 0.56 0.56 0.55 0.55 0.55 0.56 0.56 0.57 0.60 0.64 0.65 0.65 0.68 0.70 0.72 0.75 0.77 0.77 0.77 0.78 0.79 0.79 0.80 0.80 0.80 0.80 0.80 0.79 0.79 0.78 0.78 0.77 0.77 0.76 0.76 0.73 0.71 0.69 0.67 0.65 0.63 0.61 0.60 0.59 0.58 0.57 0.55 0.54 0.54 0.54 0.54 0.52 0.51 0.50 0.49 0.49 0.50 0.50 0.50 0.49 0.49 0.49 0.49 0.49 0.49 0.49 0.49
0.47 0.48 0.49 0.50 0.51 0.50 0.51 0.52 0.52 0.53 0.53 0.54 0.54 0.55 0.55 0.56 0.57 0.57 0.58 0.58 0.58 0.58 0.59 0.59 0.60 0.61 0.63 0.64 0.67 0.68 0.69 0.70 0.74 0.72 0.76 0.78 0.77 0.81 0.81 0.81 0.80 0.79 0.79 0.78 0.77 0.76 0.77 0.77 0.77 0.77 0.77 0.76 0.74 0.71 0.70 0.69 0.67 0.65 0.63 0.62 0.62 0.61 0.59 0.58 0.57 0.57 0.57 0.56 0.55 0.53 0.51 0.49 0.49 0.50 0.50 0.50 0.50 0.50 0.49 0.48 0.50 0.50 0.51 0.51 0.51
0.47 0.47 0.48 0.48 0.48 0.49 0.49 0.50 0.51 0.51 0.51 0.52 0.53 0.54 0.55 0.56 0.57 0.58 0.59 0.59 0.59 0.59 0.60 0.60 0.62 0.64 0.65 0.67 0.69 0.70 0.71 0.74 0.78 0.81 0.80 0.79 0.77 0.72 0.73 0.74 0.74 0.74 0.73 0.72 0.72 0.74 0.76 0.77 0.77 0.76 0.75 0.75 0.74 0.71 0.69 0.68 0.66 0.64 0.64 0.63 0.62 0.59 0.58 0.57 0.57 0.58 0.58 0.58 0.56 0.55 0.53 0.52 0.52 0.52 0.53 0.53 0.52 0.53 0.52 0.52 0.52 0.52 0.52 0.53 0.53
0.45 0.46 0.46 0.47 0.47 0.48 0.50 0.51 0.51 0.51 0.53 0.54 0.54 0.54 0.56 0.58 0.58 0.59 0.59 0.59 0.59 0.60 0.61 0.62 0.63 0.64 0.65 0.66 0.67 0.69 0.71 0.73 0.75 0.78 0.80 0.80 0.81 0.81 0.80 0.77 0.74 0.72 0.70 0.68 0.70 0.72 0.74 0.76 0.76 0.75 0.73 0.71 0.69 0.67 0.65 0.64 0.64 0.63 0.62 0.61 0.59 0.57 0.56 0.57 0.57 0.58 0.57 0.56 0.56 0.55 0.54 0.53 0.53 0.53 0.53 0.54 0.54 0.54 0.53 0.53 0.54 0.54 0.54 0.53 0.53
0.43 0.44 0.44 0.45 0.46 0.48 0.49 0.49 0.49 0.50 0.51 0.52 0.53 0.54 0.56 0.57 0.59 0.60 0.60 0.59 0.59 0.59 0.61 0.62 0.63 0.65 0.66 0.67 0.67 0.67 0.66 0.65 0.66 0.72 0.77 0.80 0.81 0.81 0.79 0.78 0.78 0.76 0.75 0.74 0.74 0.73 0.71 0.71 0.72 0.72 0.71 0.69 0.67 0.65 0.63 0.62 0.62 0.62 0.60 0.58 0.57 0.56 0.55 0.56 0.57 0.58 0.57 0.56 0.56 0.56 0.54 0.53 0.53 0.52 0.52 0.52 0.53 0.53 0.53 0.54 0.54 0.54 0.53 0.53 0.53
Wind_Speed
18 18 17 17 17 16 16 16 15 15 14 14 13 13 12 12 12 12 11 11 10 10 10 9 9 9 9 8 8 8 8 8 8 8 8 7 7 7 7 7 7 7 7 7 7 7 7 7 8 7 7 8 8 8 8 8 8 8 8 8 8 7 7 7 7 8 7 7 7 7 7 8 8 8 9 10 10 11 11 11 12 12 12 12 12
19 19 18 18 18 17 17 16 16 15 15 14 14 14 13 13 12 12 12 12 11 11 11 10 10 10 9 9 9 9 9 9 9 8 8 8 8 8 8 8 8 8 8 8 8 8 8 8 8 8 8 8 8 8 8 8 8 8 8 8 8 7 7 7 8 8 8 8 7 7 8 8 9 9 9 10 10 11 11 11 11 12 12 12 11
20 19 19 19 19 18 17 17 17 16 16 15 15 14 14 14 13 13 13 12 12 12 11 11 10 10 10 10 10 10 10 10 9 9 9 9 9 9 9 9 9 9 9 9 9 8 8 9 9 8 8 8 9 9 9 9 9 9 9 8 8 8 8 8 8 8 9 9 8 8 8 9 10 10 10 10 10 11 11 11 11 11 11 11 10
20 20 20 20 19 18 18 18 17 17 16 16 15 15 15 14 14 14 13 13 12 12 12 12 11 11 11 10 10 10 10 10 10 10 10 10 10 10 10 10 9 9 9 10 9 9 9 9 10 9 9 9 9 9 9 10 10 10 10 9 9 9 9 9 9 9 10 9 9 9 9 10 10 11 11 11 11 11 11 12 12 11 11 11 10
21 21 21 20 19 19 19 19 18 18 17 17 16 16 15 15 15 14 14 14 13 13 13 12 12 12 12 11 11 11 11 11 11 11 11 11 11 11 11 11 11 11 11 11 11 11 11 11 11 11 10 10 10 10 10 10 10 11 11 10 10 10 10 10 10 10 10 10 10 10 10 11 11 11 11 11 11 11 11 12 12 11 11 11 10
21 21 21 21 20 20 19 19 19 19 19 18 17 17 16 16 16 15 15 15 14 14 13 13 13 13 12 12 12 12 12 12 12 12 12 12 12 12 12 12 12 12 12 12 12 12 12 12 12 12 12 12 12 11 11 11 11 11 12 12 11 11 11 11 11 11 11 11 11 11 11 11 11 11 11 11 11 11 12 12 12 12 11 11 10
22 22 22 21 21 21 20 20 20 20 20 19 19 18 17 17 17 16 16 16 15 15 15 14 14 14 14 13 13 13 13 13 12 12 12 12 12 13 13 13 13 13 13 13 13 13 14 14 14 13 13 13 13 13 13 13 13 13 13 13 13 13 13 12 12 12 12 12 12 12 12 12 12 12 11 11 11 11 11 12 12 12 12 11 11
23 23 22 22 22 22 21 21 21 21 20 20 20 19 19 18 17 17 17 17 17 16 16 15 15 15 15 15 15 14 14 14 14 14 14 14 14 14 14 14 14 14 14 14 14 14 15 15 15 15 15 15 14 14 14 14 14 14 14 14 14 14 14 14 14 13 13 13 13 13 13 13 13 13 12 12 12 12 12 12 12 12 12 11 11
24 23 23 23 23 23 22 22 22 21 21 21 21 20 20 19 19 18 18 18 17 17 17 17 16 16 16 16 16 16 16 15 15 15 15 15 15 15 15 15 15 15 15 15 15 15 15 15 15 16 16 16 16 16 15 15 15 15 15 15 15 15 15 15 15 15 15 15 15 14 14 14 14 13 13 13 13 13 12 12 12 12 12 12 11
25 24 24 23 23 23 23 23 22 22 22 22 21 21 21 20 19 19 19 18 18 18 18 17 17 17 17 16 16 16 16 16 16 16 17 17 17 17 17 17 17 17 17 17 16 16 16 16 16 17 17 17 17 17 17 16 16 16 16 16 16 16 16 16 16 16 16 16 16 16 16 15 14 14 14 14 13 13 13 13 13 13 12 12 12
26 26 25 24 24 23 23 23 23 23 22 22 22 22 21 21 20 20 19 19 19 18 18 18 18 17 17 17 17 16 16 16 16 16 17 18 18 18 18 18 18 18 18 18 18 18 18 18 18 18 18 18 18 18 18 17 17 17 17 17 17 17 17 17 17 17 17 17 17 17 17 16 15 15 15 14 14 14 14 14 14 14 13 13 13
28 27 26 25 24 24 24 23 23 23 22 22 22 22 22 21 20 20 19 19 19 18 18 18 18 18 17 17 17 17 16 16 16 16 17 17 18 19 19 19 19 19 19 19 19 19 19 19 18 18 18 18 18 18 18 18 18 18 18 18 18 18 18 19 19 18 18 18 18 18 18 17 17 16 16 15 15 15 15 15 15 15 14 14 14
28 28 27 26 26 25 25 25 24 23 22 22 22 22 22 21 20 20 20 19 19 19 19 19 18 18 18 18 18 18 17 17 17 17 18 18 19 19 19 19 19 19 19 19 19 19 19 19 19 19 19 19 19 19 19 19 19 19 19 19 20 20 20 20 20 20 20 19 19 19 19 18 18 17 17 17 17 17 16 16 16 15 15 15 14
30 30 29 29 28 27 27 26 25 24 23 22 21 21 21 21 21 21 20 20 20 20 20 20 20 20 19 19 19 18 18 18 19 19 19 19 20 20 20 20 20 20 20 20 20 20 20 20 20 20 20 20 20 20 21 21 21 22 22 22 22 22 22 21 21 21 21 21 20 20 20 19 19 18 18 18 18 18 18 17 17 16 16 15 14
32 32 31 31 30 29 28 27 26 25 24 23 22 21 21 21 21 21 20 21 21 21 21 21 20 20 20 20 19 19 19 19 20 20 20 20 21 21 21 21 21 21 21 21 21 21 21 22 22 23 23 23 23 23 23 24 24 24 25 25 25 24 24 23 22 22 22 21 21 21 21 20 20 20 19 19 19 19 19 18 18 17 16 15 15
31 32 33 32 32 31 29 29 28 26 25 25 23 22 21 21 21 21 21 21 21 21 21 21 21 21 20 20 20 20 20 21 21 21 21 21 22 21 21 22 22 22 22 23 23 23 23 23 24 24 25 25 26 26 26 27 27 27 27 27 27 26 26 25 23 23 23 22 22 21 21 21 21 21 20 20 20 20 19 19 18 17 16 16 16
29 31 32 33 33 32 30 29 28 26 24 24 24 23 22 21 21 21 21 21 21 21 21 21 21 21 21 22 21 21 22 22 22 23 23 23 24 23 23 24 24 24 24 24 24 25 25 26 26 26 27 28 28 28 29 29 29 29 29 29 28 28 27 27 26 25 24 23 22 22 22 22 21 21 21 21 21 20 20 19 18 17 17 17 17
26 28 29 30 31 32 30 29 28 26 24 24 24 23 23 22 21 21 21 21 22 22 22 21 21 21 22 22 22 22 22 23 23 23 24 25 25 26 26 26 26 26 26 27 27 27 27 28 28 28 29 29 30 30 30 31 31 32 32 32 31 30 29 28 27 26 25 24 23 22 22 22 22 22 21 21 21 21 20 19 18 18 18 18 18
18 20 22 24 26 27 28 28 27 26 25 24 24 23 23 22 21 21 21 21 21 21 21 21 21 21 21 21 21 21 22 22 23 23 23 24 25 26 27 27 28 28 28 28 28 28 29 29 29 29 30 30 30 31 31 31 32 32 32 32 32 32 31 29 28 26 25 24 23 23 23 22 22 22 22 21 21 21 21 20 19 19 19 19 18
10 12 15 18 19 20 22 23 24 25 24 21 20 20 21 21 20 20 20 20 20 20 20 20 20 20 20 20 20 20 20 20 20 20 21 21 22 23 23 25 26 27 27 27 28 28 28 29 29 29 29 29 30 30 31 32 32 32 31 31 31 31 31 30 28 27 25 24 24 23 23 23 23 23 22 22 21 21 21 20 20 19 19 19 19
6 7 9 12 14 14 15 16 17 19 21 20 19 18 19 19 19 19 19 19 19 19 19 18 18 18 18 18 18 18 18 17 17 17 17 18 18 19 19 20 21 22 24 25 25 26 27 27 27 27 27 27 28 29 29 30 30 30 30 30 30 30 30 29 28 26 25 24 24 24 24 23 23 22 22 22 22 21 20 20 20 20 20 19 19
5 6 7 8 9 9 9 10 11 12 14 15 16 16 16 16 17 17 17 17 17 17 17 17 16 17 17 17 17 17 17 16 16 16 16 17 17 17 17 18 19 20 21 22 23 23 24 24 25 25 25 26 27 27 27 27 27 27 27 28 28 28 26 26 26 26 26 25 25 25 24 24 22 22 22 22 22 21 20 20 20 20 19 19 19
5 6 6 7 7 7 6 7 8 8 9 10 11 12 13 13 13 14 14 15 15 15 16 16 16 16 16 16 16 16 16 16 16 16 16 16 17 17 17 18 19 19 20 20 21 21 22 22 22 23 23 24 24 25 25 25 25 25 25 25 25 23 22 22 23 23 23 24 24 24 24 24 24 23 22 22 21 20 19 19 20 20 19 19 18
5 5 5 5 6 6 6 6 6 7 7 8 9 10 10 11 12 13 13 14 14 14 14 14 14 15 15 15 16 16 16 16 16 16 16 17 17 18 18 19 19 20 20 21 21 21 21 21 22 22 22 23 23 23 23 22 22 22 21 21 20 20 19 20 20 20 20 21 22 23 23 23 23 23 22 22 22 21 20 20 20 20 20 19 19
5 5 5 5 5 6 6 6 6 6 7 7 8 9 9 10 11 11 12 12 13 13 13 14 14 14 15 15 16 16 17 17 18 18 18 19 19 19 20 21 21 21 22 21 21 22 22 22 23 23 23 23 23 22 21 20 19 19 19 18 19 19 19 18 19 19 19 20 21 21 21 21 21 21 21 22 21 21 21 22 21 21 20 20 20
5 4 4 4 5 5 6 6 6 6 7 7 8 8 9 9 10 11 11 12 12 13 13 13 14 14 15 16 16 17 17 18 19 19 20 21 21 21 22 22 22 23 23 23 22 23 23 23 23 23 23 22 22 21 20 19 18 17 17 16 16 16 16 17 18 18 19 19 20 20 20 20 21 21 21 21 22 22 22 23 22 22 21 21 21
4 5 5 5 6 6 6 6 7 7 8 8 8 9 9 9 10 11 11 12 12 13 13 14 14 15 16 16 17 18 18 19 19 20 21 21 21 21 22 22 22 22 22 22 22 22 22 22 22 22 21 20 20 19 19 18 18 17 17 17 17 18 18 19 19 19 19 19 20 20 20 21 22 21 22 23 24 23 23 23 23 23 23 23 22
4 4 5 6 6 7 7 7 8 8 9 9 9 9 10 10 10 11 12 12 13 14 14 15 15 16 17 17 18 19 19 19 20 20 21 21 21 21 21 21 21 21 22 22 22 22 21 21 21 21 20 20 19 19 18 18 18 18 18 19 19 20 21 21 20 20 20 21 21 21 22 22 22 22 22 23 24 24 23 23 23 23 23 23 23
5 5 5 6 6 7 8 8 9 9 10 10 10 10 11 11 12 13 13 14 14 15 16 16 17 17 18 19 19 20 20 20 21 21 21 21 22 22 22 22 22 22 22 22 22 22 21 21 21 21 21 20 20 19 19 19 19 19 20 20 20 21 21 21 22 22 22 22 23 23 23 23 23 22 22 22 22 23 23 23 23 23 23 23 23
6 6 7 7 7 8 9 9 10 11 11 11 12 12 13 13 14 14 15 16 16 17 17 17 18 19 19 19 20 20 21 21 22 22 22 23 23 23 23 23 23 23 24 24 23 23 22 22 22 22 22 21 21 20 20 20 20 20 21 21 21 21 22 22 22 22 22 22 23 23 23 23 23 23 23 22 22 22 22 22 23 23 23 23 24
8 9 9 9 10 10 11 11 12 13 13 14 14 15 15 16 16 17 17 17 18 18 19 19 20 20 21 21 21 22 22 22 23 23 23 24 24 24 24 24 24 25 25 25 24 23 23 23 23 23 22 22 22 22 22 22 22 22 21 21 21 22 22 22 22 23 22 22 22 22 22 22 22 23 23 23 22 23 23 23 23 24 24 24 25
10 11 11 12 12 13 13 14 14 15 15 16 17 17 18 18 19 19 19 20 20 21 21 21 22 22 22 23 23 23 24 24 24 24 24 24 25 25 25 25 25 25 25 25 24 24 24 24 24 24 24 24 24 24 23 23 23 23 22 22 22 22 22 23 23 23 23 23 23 23 23 23 23 23 24 24 24 24 25 25 26 26 26 26 26
12 12 13 14 14 15 15 16 16 17 18 18 19 19 20 20 20 21 22 22 22 23 23 24 24 24 24 24 24 25 25 26 26 26 26 26 26 26 26 25 25 25 25 25 24 25 25 25 26 26 25 25 25 25 24 24 24 23 23 23 23 23 23 24 24 24 24 24 24 24 24 25 25 25 25 26 26 26 27 28 28 28 28 28 28
12 13 14 15 15 16 17 17 18 18 19 20 20 21 21 22 22 23 23 24 24 25 25 25 26 26 26 26 26 26 26 27 27 27 27 27 27 27 27 26 26 26 25 25 25 25 25 25 26 25 25 25 25 25 25 25 25 25 25 25 25 25 25 25 26 26 26 26 26 26 26 26 27 27 28 28 28 28 29 29 29 29 30 30 31
14 15 15 16 17 17 18 18 19 20 20 21 21 22 22 23 23 24 24 25 26 26 26 27 27 27 27 27 27 27 27 27 27 27 27 27 28 28 28 27 26 26 26 26 26 26 26 26 26 26 26 26 26 26 27 27 27 27 27 27 27 28 28 28 28 28 28 28 28 28 28 28 29 29 30 30 30 30 30 30 30 31 31 32 32
16 17 17 18 18 19 19 20 20 21 22 22 23 23 24 24 25 25 26 26 27 27 27 28 28 28 28 28 28 29 28 28 28 28 28 28 29 29 28 28 27 27 27 27 27 27 27 27 27 27 27 28 28 28 28 28 28 29 29 29 29 30 30 30 30 30 30 30 30 30 31 31 31 31 31 32 32 32 32 32 32 32 33 33 34
17 18 19 19 20 21 21 22 22 23 24 24 25 25 26 26 26 27 27 28 28 28 29 29 29 29 30 30 30 30 30 30 30 30 30 30 30 30 29 29 29 28 28 28 28 28 28 28 28 28 29 29 29 29 29 30 30 30 30 31 31 31 32 32 32 32 32 32 32 32 32 32 32 33 33 33 33 33 33 34 34 34 34 34 34
18 19 20 20 21 22 23 23 24 24 25 26 26 27 27 28 28 29 29 29 30 30 30 30 31 31 31 31 32 32 32 32 32 32 32 31 31 31 31 30 30 30 30 30 30 30 30 30 30 30 30 30 30 31 31 31 31 32 32 32 32 32 33 33 33 33 33 33 33 33 33 34 34 34 34 35 35 35 35 35 35 35 35 36 36
19 20 21 22 22 23 24 24 25 26 26 27 27 28 29 29 30 30 30 31 31 32 32 32 32 33 33 33 33 33 33 34 34 34 33 33 33 33 32 32 31 31 31 31 31 31 31 32 32 32 32 32 32 32 32 32 32 33 33 33 33 33 33 34 34 34 34 35 35 35 35 35 35 35 36 36 36 36 36 36 36 36 37 37 37
21 21 22 23 24 24 25 26 27 27 28 29 29 30 30 31 32 32 32 33 33 34 34 35 35 35 35 35 35 35 35 36 35 35 35 35 34 34 34 33 33 33 33 33 33 32 32 33 33 33 33 33 33 33 33 33 33 34 34 34 34 34 34 35 35 35 35 36 36 36 37 37 37 37 37 37 37 37 37 37 37 37 38 38 38
22 23 24 25 25 26 27 28 28 29 30 31 32 32 33 33 34 34 35 35 36 36 37 37 37 38 37 37 37 37 38 37 37 37 36 36 36 36 35 35 34 34 34 34 34 34 34 34 34 34 34 34 34 34 34 35 35 35 35 35 35 35 35 35 35 36 36 37 37 37 37 37 37 37 37 37 37 37 37 37 38 38 38 38 39
24 25 26 26 27 28 29 29 30 31 32 33 33 34 35 35 36 37 37 37 38 38 39 39 40 40 39 39 40 40 40 39 39 39 38 38 37 37 37 36 36 35 35 35 35 35 35 35 35 35 36 36 36 36 36 36 36 36 35 35 35 35 35 36 36 37 37 37 38 38 38 38 38 38 37 37 37 37 37 38 38 38 38 38 38
25 26 27 28 28 29 30 31 31 32 33 34 34 35 36 37 37 38 38 39 39 40 40 41 41 41 41 41 41 41 41 41 40 40 40 39 39 38 38 37 37 36 36 36 36 36 36 36 36 36 37 37 37 37 37 37 36 36 36 36 36 36 36 37 37 37 38 38 38 39 39 38 38 38 38 38 38 38 38 38 38 38 38 38 38
26 27 28 28 29 30 31 31 32 33 34 34 35 36 36 37 38 39 40 40 41 41 42 42 42 42 42 42 43 43 42 42 42 42 41 41 40 40 39 38 38 37 37 36 36 36 36 36 37 37 37 37 37 37 37 37 36 36 36 36 36 36 37 37 37 37 38 38 38 38 38 38 38 38 38 38 38 38 38 38 38 38 38 38 38
26 27 28 29 29 30 31 32 32 33 34 35 35 36 37 38 38 39 40 41 41 42 43 43 43 43 43 44 44 44 43 43 43 43 42 41 41 40 40 39 39 38 38 37 37 37 37 37 37 37 37 36 36 36 36 36 36 36 36 36 36 36 37 37 37 37 38 38 38 38 37 37 37 38 38 38 38 38 38 38 38 38 38 38 38
27 27 28 29 30 30 31 32 33 33 34 35 36 36 37 37 38 39 40 40 41 42 43 43 44 44 44 44 44 44 44 44 43 43 42 42 41 41 40 40 39 39 38 38 38 38 38 37 37 37 37 36 36 35 35 35 35 35 35 35 36 36 36 36 37 37 37 37 36 36 36 36 36 36 37 37 37 37 37 37 37 37 37 37 37
27 27 28 29 30 30 31 31 32 33 34 34 35 35 36 37 37 38 39 39 40 41 41 42 43 43 43 43 44 44 44 45 44 44 43 42 41 40 39 39 39 38 38 37 37 37 37 37 37 36 36 36 35 34 34 34 34 34 34 35 35 35 35 36 36 35 35 35 35 35 35 35 35 35 35 35 35 35 35 35 35 35 36 36 36
27 27 28 29 29 30 30 31 32 32 33 33 33 34 35 35 36 37 37 38 38 39 39 39 40 40 40 41 41 41 42 42 43 42 42 40 39 38 37 37 36 36 36 36 36 36 36 36 35 35 35 34 33 33 33 33 33 33 33 33 33 34 34 34 34 34 34 34 34 34 34 34 34 34 34 34 34 34 34 34 34 34 35 35 35
27 27 28 28 29 30 30 31 31 31 31 31 32 32 33 34 34 34 35 35 35 35 36 36 36 36 36 37 37 37 38 39 39 38 37 37 36 36 36 35 35 36 36 36 36 35 34 34 33 33 32 32 32 32 32 33 32 32 32 32 33 33 33 33 32 32 32 32 33 33 33 33 33 33 33 33 33 34 34 34 34 34 34 34 34
27 27 28 28 29 29 29 30 30 30 30 30 30 31 31 31 32 32 32 32 32 32 32 32 33 33 32 32 32 33 34 35 35 35 34 34 34 34 34 35 35 34 34 34 33 33 32 32 32 31 31 31 31 31 31 31 31 31 31 32 32 32 32 31 31 31 31 31 32 32 32 33 33 33 33 33 33 33 33 33 33 33 33 33 33
27 27 28 28 28 29 29 29 29 29 29 29 29 29 29 29 29 29 29 29 29 29 29 29 29 29 29 28 28 29 29 30 30 31 32 32 32 31 31 31 31 30 30 29 29 29 30 30 31 30 30 30 30 30 30 30 30 30 30 31 31 31 31 31 31 31 31 31 32 32 32 32 32 32 32 32 32 32 32 32 32 32 32 32 32
Wind_Direction
217 217 217 217 217 218 219 221 222 223 223 223 223 224 225 225 226 227 228 229 230 231 233 235 236 236 236 237 239 242 244 246 248 249 251 251 253 256 257 258 259 262 265 268 271 272 273 276 278 279 280 279 279 280 282 284 287 290 291 291 292 291 291 291 294 301 308 312 317 320 325 330 334 336 337 338 340 341 343 345 346 348 350 351 354
220 220 220 220 220 221 222 222 224 224 225 225 225 226 226 227 228 229 230 231 231 232 233 234 236 237 238 239 241 244 246 248 249 250 251 253 255 258 259 259 260 263 266 269 271 271 274 277 279 280 279 278 279 281 282 285 287 289 290 291 292 291 290 291 293 298 302 306 310 313 317 324 328 329 331 333 335 337 339 341 343 344 346 348 350
222 223 223 223 223 223 224 225 225 225 226 227 227 227 227 228 229 230 231 232 232 233 233 234 236 237 239 241 243 245 248 249 250 251 253 254 256 258 260 261 263 265 267 269 270 271 273 276 277 279 280 279 280 281 282 284 285 287 288 288 289 289 288 289 290 292 296 301 304 307 313 319 322 323 324 326 328 330 332 335 338 339 340 343 346
224 224 224 225 226 226 226 227 227 227 227 227 228 228 229 229 230 231 231 232 233 233 234 235 237 238 240 242 244 246 248 250 251 252 254 255 257 258 260 262 264 266 267 269 271 271 272 274 275 277 280 281 282 282 283 284 284 285 286 286 285 286 287 287 286 288 291 295 297 302 308 313 316 317 318 320 321 323 327 330 332 335 336 338 341
225 225 225 226 227 228 228 229 229 229 229 228 228 229 230 231 231 232 232 233 233 234 235 236 238 239 241 243 245 247 249 251 253 254 255 256 258 260 261 263 265 266 268 269 270 271 271 273 274 276 278 279 281 282 283 283 284 284 284 284 283 284 285 285 284 285 286 289 292 297 301 305 309 311 313 316 317 318 322 325 327 330 332 333 335
227 227 227 227 228 229 230 230 230 230 230 230 229 229 230 231 232 233 233 234 234 235 236 238 239 240 242 244 246 248 251 253 255 256 256 257 259 261 263 264 266 267 269 270 270 271 271 272 273 275 276 277 278 280 281 282 282 282 282 283 282 282 282 282 282 282 283 285 289 293 297 301 304 306 308 311 313 315 318 320 322 325 327 328 329
228 228 229 229 230 231 231 232 232 231 231 231 230 230 231 232 233 234 235 236 236 237 238 239 241 243 244 246 248 250 252 255 256 257 258 259 260 262 263 264 266 267 269 270 270 271 272 272 273 274 274 275 277 278 280 280 280 280 281 281 282 282 281 280 279 280 281 283 286 290 295 299 301 302 303 305 307 309 313 316 318 320 321 322 323
228 229 230 230 231 232 233 233 233 233 232 232 232 232 233 234 235 236 236 237 239 240 240 242 243 245 246 247 249 251 253 255 257 258 259 260 261 262 264 265 266 267 269 270 270 270 271 272 273 273 274 275 276 277 278 279 279 279 279 279 279 279 279 278 277 278 279 281 283 286 291 296 298 299 300 301 302 304 308 311 313 314 315 315 317
229 229 230 231 232 233 234 234 235 234 234 233 233 234 235 236 237 238 238 239 240 241 242 243 245 246 247 249 250 253 254 256 257 259 260 261 263 264 265 266 267 268 269 270 271 271 272 272 273 273 274 275 275 276 276 277 278 279 279 278 279 278 278 277 276 277 278 279 280 283 286 290 293 294 296 297 298 301 304 307 308 309 309 308 310
230 231 231 232 233 234 234 235 235 234 234 234 234 235 236 237 238 239 239 240 241 242 243 245 246 247 248 250 252 254 256 257 259 260 261 262 263 264 265 266 267 268 269 270 270 271 272 273 274 274 274 275 275 275 276 276 276 277 278 278 279 279 279 278 277 277 277 278 279 280 283 285 287 289 291 293 294 297 301 303 304 304 304 303 304
232 233 233 234 235 235 235 235 235 235 234 234 235 235 236 237 239 239 240 240 241 242 244 245 246 248 249 251 253 254 256 259 262 263 263 263 263 264 265 266 267 266 267 267 268 269 271 273 274 275 275 275 275 275 275 276 276 276 276 277 278 279 279 278 278 278 277 278 278 279 280 282 284 286 288 289 291 293 297 299 300 300 300 299 298
233 233 234 234 235 236 237 237 236 235 235 235 235 235 236 237 238 238 238 239 240 241 243 245 246 247 250 251 253 255 256 259 262 263 264 265 266 265 265 266 266 266 265 266 267 268 270 271 273 274 274 275 275 275 275 276 277 276 276 277 278 279 279 279 278 278 278 278 278 277 278 280 282 284 285 287 288 290 292 295 296 296 296 295 294
233 233 234 235 236 237 238 238 237 236 236 237 238 237 235 235 236 237 238 239 240 242 244 245 246 247 249 251 253 255 257 260 263 264 265 266 267 267 266 266 267 266 265 265 266 267 268 270 271 273 274 275 275 275 276 277 277 276 276 277 277 277 277 277 276 276 276 277 277 277 277 278 280 281 282 284 286 288 290 291 292 292 292 291 291
234 234 235 236 236 237 237 238 238 237 236 237 239 238 235 234 235 236 238 240 241 242 243 244 246 248 249 251 253 256 258 261 263 264 265 266 267 267 266 266 266 266 266 266 266 267 268 269 270 271 273 274 274 275 276 276 275 274 275 276 277 276 276 276 275 274 273 274 274 275 276 277 277 279 280 282 284 286 288 289 289 288 287 287 287
235 236 236 235 236 236 236 236 236 237 236 235 236 237 236 236 236 237 239 241 242 242 243 245 247 249 251 253 255 257 259 262 264 265 266 267 267 266 265 265 265 265 265 266 267 268 268 269 270 271 272 273 274 275 276 276 274 274 274 275 276 275 274 274 275 274 272 272 272 274 274 275 275 276 279 281 282 284 285 286 286 284 282 282 283
238 237 236 235 235 235 234 235 235 237 238 235 233 234 235 235 237 238 239 242 243 244 245 247 250 251 253 255 257 258 261 264 266 266 267 268 267 266 265 265 265 265 266 266 267 267 268 269 270 272 273 273 274 275 275 275 274 274 274 274 274 273 272 272 272 272 272 272 272 273 274 275 275 276 277 279 281 282 283 283 282 280 278 278 279
239 238 237 236 234 233 233 234 234 234 235 233 232 233 234 235 237 239 240 242 243 244 246 249 251 253 255 257 259 260 263 266 267 267 268 269 268 267 266 266 266 267 267 267 268 269 270 271 272 273 274 275 275 275 275 274 274 274 274 273 272 272 271 270 269 269 269 269 270 272 273 274 275 275 276 277 278 279 280 279 278 276 275 276 277
239 237 236 235 233 231 231 232 231 231 233 233 232 233 234 236 238 240 242 243 244 245 247 250 252 254 256 258 260 261 264 266 268 269 270 271 270 269 268 267 267 267 268 269 270 271 272 273 274 275 275 276 276 276 275 274 274 273 273 272 271 270 269 268 267 265 264 265 267 269 270 271 273 274 275 276 275 275 276 276 275 274 274 274 275
235 232 230 230 229 227 226 228 230 231 234 235 235 235 235 235 238 241 242 243 244 245 247 250 252 255 257 259 261 263 264 267 269 270 272 273 273 271 269 268 268 268 269 270 271 272 274 275 276 276 276 276 277 277 276 274 273 272 273 272 270 269 267 265 265 264 261 261 264 267 268 269 272 274 275 275 274 273 273 273 273 273 273 273 274
225 224 222 221 220 220 222 225 229 231 233 234 235 235 234 235 238 241 241 242 244 246 249 251 253 255 256 258 260 262 264 266 269 271 274 276 276 274 272 271 270 269 270 271 272 274 275 275 276 277 278 278 278 277 276 275 273 272 272 271 269 268 266 264 264 262 259 260 263 266 267 269 270 272 273 274 273 272 271 271 271 271 272 272 272
203 203 202 203 206 210 217 223 228 231 230 230 231 232 233 236 238 241 242 242 244 247 250 252 253 253 254 256 260 263 265 266 268 270 273 276 278 277 275 274 273 272 272 272 273 274 275 276 277 279 279 279 279 278 277 276 274 272 271 270 270 268 266 264 262 259 257 259 263 265 267 268 269 271 272 273 272 270 269 269 269 270 271 271 270
173 172 173 179 186 193 203 212 219 224 224 224 226 229 232 235 238 240 241 241 242 245 250 252 254 254 255 257 260 263 265 266 268 269 272 275 278 279 277 277 277 277 276 276 276 277 277 278 278 280 280 281 281 281 279 278 277 274 272 271 271 269 266 263 261 259 259 261 263 265 267 268 268 270 271 270 269 268 268 267 267 269 270 270 269
164 160 164 172 181 189 196 203 208 211 210 212 217 222 226 233 238 241 242 242 243 247 251 255 256 256 256 257 260 262 264 267 270 272 274 277 278 279 279 279 279 279 279 279 279 279 279 279 279 281 282 283 285 285 283 281 279 276 273 271 269 265 264 262 260 260 262 263 264 265 267 267 267 267 268 268 267 266 266 266 266 267 267 268 268
172 165 167 174 183 192 198 201 206 208 210 213 218 224 230 236 240 242 243 244 246 249 253 256 257 257 257 257 259 262 265 268 271 273 275 276 278 279 280 280 280 279 278 279 279 279 279 279 280 283 284 285 286 287 286 285 282 278 273 269 264 261 263 265 262 262 264 265 266 267 267 267 266 264 264 267 267 264 264 266 268 267 267 267 267
185 181 180 185 193 199 202 208 215 220 225 230 235 240 244 244 243 243 244 246 249 252 254 255 256 257 258 259 260 263 266 269 271 273 274 276 277 278 280 280 280 280 279 279 280 279 279 280 280 281 283 284 285 286 286 285 282 276 272 269 265 263 265 265 263 263 266 268 268 267 267 268 268 266 265 266 267 266 266 267 268 267 266 266 267
203 205 207 212 218 219 220 225 232 237 242 247 251 254 255 253 251 252 253 254 255 255 255 256 257 258 260 262 264 267 269 271 273 274 275 277 278 279 279 279 279 280 279 280 280 280 279 279 280 281 282 283 284 284 283 282 279 275 271 268 264 261 261 264 267 267 267 267 266 265 266 268 269 268 267 267 268 269 268 266 264 264 264 264 265
225 228 229 231 234 237 240 244 249 254 258 260 261 262 262 259 257 257 258 259 259 259 259 259 260 262 264 267 269 271 272 274 275 277 278 279 279 280 279 279 280 280 279 280 281 281 280 280 280 281 283 284 284 283 282 281 278 276 272 267 263 262 264 268 270 269 268 266 265 265 266 268 268 268 267 267 267 268 267 265 263 263 264 264 264
235 233 233 235 240 244 249 254 258 260 262 263 263 262 261 260 259 259 261 262 263 264 265 265 266 268 270 271 273 274 275 276 277 279 280 280 280 280 280 280 280 280 279 280 280 280 280 280 280 281 282 283 284 283 282 280 277 275 273 269 267 266 267 269 270 270 269 267 266 267 268 269 270 269 267 266 267 267 266 265 264 263 263 263 264
238 240 240 241 246 250 253 258 260 262 262 262 263 263 264 265 264 264 265 267 267 267 267 268 269 270 271 273 274 275 276 277 279 280 280 281 281 281 280 280 280 279 280 280 280 279 279 279 280 280 280 281 282 282 281 280 278 277 276 273 271 270 269 269 270 271 270 269 269 270 271 271 271 269 267 267 267 266 266 266 265 264 263 263 263
242 246 248 251 254 256 257 260 262 263 264 265 265 267 268 270 271 270 269 269 270 271 270 270 271 271 272 272 273 275 276 277 278 279 279 279 279 279 279 279 278 278 279 279 278 278 278 278 279 279 279 279 280 280 279 279 279 278 278 277 276 275 273 272 271 270 270 270 270 271 271 270 270 269 267 267 268 268 268 267 266 265 265 264 264
250 253 256 258 260 261 262 263 265 266 267 268 270 270 271 272 274 274 273 272 273 273 274 274 274 275 275 274 274 274 275 276 277 278 278 278 278 278 278 278 278 278 278 277 277 277 277 277 277 277 277 278 278 278 278 278 277 277 276 276 276 275 274 273 272 272 271 271 270 270 270 271 270 270 269 269 269 270 270 269 267 266 267 268 267
259 260 262 264 266 267 268 269 270 271 272 273 274 274 274 274 275 276 276 276 276 277 277 277 278 278 278 278 278 277 277 278 279 279 278 279 278 278 278 278 278 277 276 275 275 276 275 275 274 275 276 276 276 276 276 276 276 275 275 274 274 274 273 272 272 272 272 272 271 271 270 271 271 272 272 271 271 271 272 271 270 269 269 269 270
265 267 269 270 272 273 274 274 275 276 277 277 278 278 278 278 278 277 277 278 278 278 278 279 279 279 280 280 280 280 279 280 280 280 280 280 280 279 279 279 278 278 276 275 275 275 275 274 274 274 275 275 275 275 275 274 274 274 274 273 273 273 273 273 273 273 273 273 272 271 271 271 271 272 273 273 272 272 272 272 272 272 271 271 271
272 273 275 276 276 277 278 278 278 278 279 279 279 279 280 280 280 279 279 279 279 278 278 278 278 279 279 280 280 280 280 280 281 281 281 281 280 280 279 279 279 278 276 275 274 274 274 274 274 274 274 273 273 273 273 273 274 273 273 273 273 273 273 274 274 274 274 274 274 273 273 273 272 273 273 273 273 272 272 272 272 273 273 273 273
276 277 279 279 280 280 281 281 281 281 281 281 281 281 281 281 281 281 280 280 280 279 278 278 278 278 279 279 279 280 280 280 280 280 279 279 279 279 278 277 277 277 276 275 274 274 274 273 273 273 273 273 273 273 273 273 273 273 273 273 273 273 273 274 274 274 275 275 275 275 275 274 274 274 274 273 273 273 273 273 273 273 273 273 274
279 279 280 281 282 282 282 283 283 283 282 282 282 282 282 282 282 282 281 281 280 279 278 277 277 277 277 278 278 279 279 279 279 279 279 278 278 277 276 275 275 275 274 274 274 273 273 273 273 273 273 273 273 273 273 273 273 273 273 273 273 274 274 274 274 274 274 275 275 275 275 275 275 274 274 274 274 273 273 274 274 274 274 274 274
282 282 282 282 283 283 283 283 283 283 283 282 282 282 282 282 282 282 281 281 281 280 279 278 277 276 276 276 276 277 277 278 278 277 278 277 277 276 274 273 273 273 273 273 273 273 273 272 272 272 272 272 273 272 272 273 273 273 273 273 273 273 273 274 274 274 274 274 275 275 275 275 275 275 275 274 274 274 274 274 273 273 274 274 274
284 284 284 284 284 284 284 284 284 284 283 283 282 282 282 282 282 281 281 281 280 280 280 279 278 277 276 275 275 275 276 276 276 276 276 276 276 275 273 272 272 272 272 272 272 272 272 272 272 272 272 272 272 272 272 272 272 272 272 272 272 272 272 273 273 274 274 274 274 275 275 275 274 274 274 274 274 274 274 273 273 273 274 274 275
285 285 285 285 286 286 285 285 285 285 285 285 284 284 283 283 282 282 281 281 280 280 279 279 278 278 277 276 275 275 275 275 275 274 275 275 274 273 272 271 271 271 271 271 272 272 272 272 272 273 273 273 273 273 272 272 272 272 272 272 272 272 272 272 272 273 273 274 274 274 275 275 275 275 274 274 273 273 274 274 274 274 275 275 276
287 287 287 287 287 287 287 287 287 287 287 287 287 286 286 285 284 283 283 282 281 280 280 279 278 278 277 276 275 274 274 274 274 273 273 273 273 272 271 270 271 271 271 271 271 272 272 272 272 272 273 273 273 273 273 273 273 273 272 272 272 272 272 272 272 273 273 273 274 274 275 275 275 275 275 275 274 274 275 275 275 275 275 276 276
290 290 290 290 289 289 289 288 288 288 288 288 288 287 287 286 285 285 284 283 282 281 280 279 278 277 276 275 274 273 273 273 273 272 272 272 272 271 270 270 270 270 270 271 271 271 272 272 272 273 273 273 273 273 273 273 273 273 273 273 272 272 272 272 272 273 273 274 274 275 275 275 275 275 275 275 275 275 275 275 275 275 275 276 276
291 291 291 291 291 290 290 290 290 289 289 288 288 287 287 287 286 285 284 283 282 281 280 279 278 277 276 275 273 272 271 271 271 271 271 271 270 270 269 269 269 269 270 270 271 271 271 272 272 273 273 273 273 273 273 273 273 273 272 272 272 271 271 272 272 273 273 274 275 275 275 275 275 275 275 275 275 275 275 275 275 276 276 276 276
291 291 291 291 291 291 291 290 290 290 290 290 289 289 288 288 287 286 286 285 284 282 281 280 279 277 276 275 273 272 271 270 270 270 269 269 269 268 267 267 268 268 269 270 270 271 271 272 272 273 273 273 273 273 273 273 273 272 272 272 272 272 272 272 272 273 274 274 275 275 275 275 275 275 275 275 275 276 276 276 276 276 277 277 277
293 292 292 292 292 292 291 291 291 291 291 291 291 290 290 289 288 288 287 286 285 283 282 281 279 277 275 274 273 271 270 270 269 268 268 268 267 266 266 266 266 267 267 268 269 270 271 272 273 273 273 273 273 273 273 272 272 271 271 271 272 272 272 272 273 274 274 275 275 275 274 275 275 275 275 276 276 276 276 277 277 277 277 278 278
296 295 295 294 294 293 293 293 293 292 292 292 292 291 291 290 290 289 288 287 286 284 283 282 280 278 276 274 272 270 269 269 268 267 266 266 266 265 265 265 265 266 267 268 269 270 271 272 273 273 273 273 273 273 272 272 272 271 271 272 272 273 273 274 275 275 275 275 275 275 274 275 275 275 275 276 276 276 277 277 277 278 278 278 279
298 297 297 297 296 296 295 295 295 294 294 294 293 293 293 292 292 291 290 289 288 286 285 283 281 279 277 274 272 270 268 268 267 266 265 264 264 264 263 264 264 265 266 267 269 270 271 272 272 273 273 273 273 273 272 272 272 272 272 272 273 273 274 275 276 276 276 276 275 275 275 275 275 276 276 276 276 277 277 277 278 278 279 279 279
300 300 300 299 299 298 298 297 297 297 297 296 295 295 294 294 293 293 292 291 290 289 287 284 282 280 278 276 273 270 268 267 265 264 263 263 263 263 263 263 264 265 266 267 268 269 271 271 272 272 273 273 273 273 273 273 273 273 273 274 274 274 275 276 277 277 277 276 276 276 276 276 277 277 277 277 277 277 278 278 279 279 279 279 280
302 302 302 302 301 301 300 300 300 300 299 298 297 296 296 296 296 296 295 294 293 291 289 287 285 283 280 277 275 272 269 267 265 263 261 261 261 261 261 262 263 264 266 267 268 269 270 271 271 272 272 271 271 272 272 273 273 273 274 275 275 276 277 278 278 278 277 277 277 277 277 277 277 278 278 278 278 278 279 279 280 280 280 280 280
304 304 304 304 304 303 303 303 302 301 300 299 299 299 299 298 298 298 298 297 296 295 293 291 289 286 284 280 277 273 270 268 264 261 259 258 259 259 260 262 263 265 266 267 268 268 269 270 270 271 271 271 270 271 272 272 272 272 274 275 276 277 278 279 279 279 278 277 277 277 278 278 278 278 278 278 279 279 280 280 280 281 281 281 281
305 305 305 305 305 304 304 304 303 302 302 301 301 301 301 301 301 301 300 299 299 298 297 295 293 290 287 284 280 276 272 267 261 257 256 257 258 259 260 262 264 265 265 265 266 266 267 268 268 269 270 270 270 272 273 272 271 272 274 275 277 278 278 278 279 279 279 278 278 278 278 278 278 278 278 279 279 279 280 281 281 281 281 281 282
306 306 306 305 305 305 304 304 303 303 303 303 303 303 303 303 304 304 303 302 301 301 301 299 297 294 291 287 283 279 274 266 260 256 255 256 257 259 261 262 263 263 263 264 265 265 266 267 267 268 268 269 269 272 273 272 272 274 276 277 278 278 277 277 279 280 280 279 278 278 278 278 278 279 279 279 279 280 280 281 281 282 282 282 282